Temperature
30 30 29 30 31 31 29 28 26 26 28 27 25 23 21 22 23 23 23 22 21 21 20 20 19 19 18 18 18 18 18 18 18 17 17 17 17 17 16 16 16 15 14 14
30 30 31 32 32 31 29 27 26 27 28 28 26 23 22 23 24 23 23 22 21 21 20 20 20 19 19 19 18 18 18 18 18 17 17 17 17 16 16 16 15 15 14 13
31 31 32 32 31 30 28 27 27 27 28 27 25 23 23 23 23 22 23 22 22 21 21 20 20 20 19 19 19 19 18 18 17 17 17 16 16 16 16 16 15 15 14 13
31 32 32 31 30 30 28 29 29 28 27 24 24 22 22 22 22 23 23 23 22 22 21 21 20 20 20 20 19 19 18 18 17 17 16 16 16 16 16 15 15 14 14 13
31 32 31 31 31 31 30 30 28 26 24 23 24 24 24 23 23 24 24 23 23 23 22 21 21 21 21 20 20 19 18 18 17 17 16 16 16 15 15 15 14 14 14 13
31 32 32 31 32 31 31 28 25 22 21 21 24 25 25 25 25 25 25 24 24 23 23 22 22 21 21 21 20 19 18 18 17 16 16 15 15 15 15 14 14 14 14 14
29 30 30 31 30 30 29 27 23 21 20 21 26 27 26 27 27 27 26 25 24 24 23 23 22 22 21 21 20 20 19 18 17 16 16 15 15 14 14 14 14 13 13 14
28 26 28 30 30 29 29 28 26 24 24 25 27 27 27 29 29 28 27 26 25 25 24 24 23 23 22 21 20 20 19 18 17 16 16 15 15 14 14 14 14 13 13 13
28 27 29 31 31 31 30 30 30 28 27 25 26 28 28 29 28 28 27 26 26 25 25 24 24 23 22 21 21 20 19 18 17 16 16 15 15 14 14 13 13 13 13 12
30 29 30 31 31 31 31 30 30 28 26 24 23 24 26 27 28 28 28 27 26 26 25 25 24 23 22 21 20 19 18 18 17 16 15 15 15 14 13 13 13 13 12 12
31 29 30 30 28 29 30 30 29 29 28 26 23 23 26 28 29 28 28 28 27 26 26 25 24 23 22 21 20 19 18 17 17 16 15 15 14 14 13 13 13 12 12 12
31 30 29 28 28 28 29 30 29 28 27 28 27 26 29 30 30 29 29 28 27 27 26 25 24 23 22 21 20 19 18 17 17 16 15 15 14 14 13 13 13 12 12 12
30 28 27 27 25 24 25 28 29 29 28 28 27 26 29 29 30 30 29 28 28 27 26 25 24 23 22 21 20 20 18 18 17 16 16 15 14 14 13 13 13 12 12 12
30 28 27 26 24 23 23 26 28 29 28 28 27 27 27 28 29 29 29 28 27 26 26 25 24 22 22 21 20 19 19 18 17 17 16 15 15 14 13 13 13 12 12 12
29 28 28 28 27 26 26 27 29 29 29 29 28 28 29 29 29 29 29 28 27 26 25 24 23 22 21 20 20 19 18 18 17 17 16 15 15 14 14 13 13 12 12 12
28 27 28 28 29 29 28 29 29 30 30 30 29 29 30 30 29 29 28 28 27 26 25 24 23 22 21 20 19 19 18 17 17 16 16 15 15 14 14 13 13 13 12 12
28 27 27 27 29 28 28 29 29 29 30 29 29 29 30 29 29 28 28 27 27 26 25 24 23 22 21 20 19 19 18 17 17 16 16 15 15 14 14 14 13 13 12 12
27 26 26 27 27 26 27 28 29 28 29 30 29 29 29 29 28 28 27 27 27 26 25 25 24 22 21 20 19 19 18 17 17 16 16 15 15 15 14 14 13 13 12 12
27 26 26 27 26 27 28 27 27 26 26 28 28 28 28 28 28 28 27 27 26 26 25 25 24 23 22 21 20 19 18 18 17 16 16 16 15 15 14 14 13 13 13 12
25 25 25 26 26 26 26 26 25 25 24 26 26 26 26 26 26 26 26 26 26 25 25 24 24 23 22 21 20 19 18 18 17 17 16 16 16 15 15 14 14 13 13 13
23 23 24 25 26 26 26 26 25 23 22 24 24 24 25 25 25 25 26 26 25 25 24 24 23 23 22 21 20 19 19 18 18 17 17 16 16 15 15 15 14 13 13 12
25 24 24 24 24 23 23 24 23 21 22 22 24 24 24 25 25 25 25 25 24 24 24 23 23 22 22 21 20 19 19 18 17 17 16 16 16 15 15 14 14 13 13 12
26 26 26 25 23 21 20 20 20 21 22 23 24 24 24 24 24 24 24 24 23 23 23 22 22 22 21 20 20 19 18 18 17 16 16 16 16 15 15 15 14 13 13 12
26 26 25 24 22 20 20 21 21 22 22 23 23 23 23 23 23 23 22 22 22 21 21 21 21 21 20 20 19 18 18 17 17 16 16 16 16 15 15 14 14 13 13 13
26 25 24 23 22 21 20 21 22 22 22 22 22 22 21 21 21 20 20 19 19 19 20 20 20 20 19 19 18 17 17 16 16 16 16 15 15 14 14 14 14 14 13 13
26 25 24 23 22 22 21 21 22 21 21 21 20 20 19 19 19 19 18 18 18 18 18 18 18 18 18 18 17 17 16 16 16 15 15 15 14 14 14 14 14 14 14 14
Wind_Speed
13 12 11 9 8 8 6 2 2 5 6 4 3 9 9 11 7 7 9 9 10 10 11 11 11 12 12 10 9 7 7 5 2 1 0 1 2 2 2 2 6 3 4 5
13 11 12 9 9 8 5 5 5 7 8 5 1 4 5 5 3 5 10 10 10 11 11 10 10 11 11 10 8 7 7 6 4 3 1 1 1 3 2 1 3 2 3 4
12 8 6 8 9 6 4 4 8 8 5 1 3 2 2 2 3 4 7 11 12 13 13 12 10 10 11 11 10 9 8 7 5 2 2 2 1 3 2 2 1 3 3 3
10 8 7 8 8 7 5 7 9 7 4 2 1 2 4 5 5 6 7 10 12 12 13 12 11 10 11 10 10 7 7 6 4 3 2 3 3 3 3 1 1 2 2 3
11 9 9 8 7 8 6 5 10 14 9 3 5 4 4 9 8 10 11 12 12 13 13 13 13 11 10 10 8 8 7 6 4 3 2 3 3 4 4 4 3 2 4 4
13 11 8 7 6 6 7 5 10 10 6 5 10 6 5 8 9 11 13 13 13 13 13 13 12 11 9 8 8 9 9 7 5 4 3 2 2 3 4 5 5 4 3 2
10 9 8 7 7 4 7 5 2 2 1 7 11 4 6 8 9 11 14 14 13 13 13 12 11 11 10 8 8 9 10 8 6 4 3 1 2 3 5 6 5 3 4 2
5 5 8 8 7 5 8 6 4 5 3 4 5 5 9 9 9 10 13 14 14 13 13 12 12 10 10 9 8 8 9 7 5 4 3 1 1 4 4 2 4 4 4 4
5 4 10 9 7 8 8 8 7 7 6 4 2 6 12 10 10 11 12 13 13 12 12 12 11 9 9 8 7 7 9 7 5 3 3 4 4 4 4 4 5 5 3 5
8 9 8 4 8 10 9 9 8 6 4 1 5 4 4 10 11 10 11 12 12 12 12 11 11 10 10 9 8 8 8 7 4 4 4 4 3 4 4 5 5 5 5 5
8 10 10 5 8 11 7 8 6 7 7 5 1 2 6 9 10 12 12 12 13 12 12 11 10 10 10 10 10 8 8 7 6 5 4 2 2 3 4 4 5 5 5 5
6 8 10 6 8 14 11 9 6 6 6 7 3 2 2 4 8 10 11 12 12 12 11 11 12 10 10 10 10 10 8 8 7 6 5 5 5 5 5 5 4 4 5 6
5 6 9 7 9 12 11 14 10 7 6 7 5 1 1 2 2 6 7 9 10 9 8 9 11 10 9 8 8 9 9 8 7 7 7 6 6 6 5 5 5 5 6 6
5 8 11 12 5 7 10 17 13 10 7 6 6 4 4 4 3 4 6 6 8 9 8 8 10 9 8 7 7 6 6 6 6 6 6 6 5 5 4 5 5 5 6 6
6 10 12 12 8 11 14 16 13 11 10 10 8 6 3 3 3 3 5 6 7 9 9 9 9 9 8 7 7 7 6 6 5 4 5 5 5 5 4 5 5 5 6 8
6 9 13 15 14 13 13 13 13 12 10 10 9 5 4 5 3 2 3 4 6 7 9 10 10 11 10 9 8 8 7 7 7 6 5 5 4 4 5 5 6 6 6 6
9 10 13 15 16 14 13 12 11 9 8 8 5 1 2 2 2 1 2 4 6 7 9 10 11 11 11 10 9 9 8 7 7 7 6 6 6 6 5 6 5 5 5 6
9 9 9 14 16 17 8 7 7 8 6 5 3 1 1 1 2 3 4 4 4 6 7 9 10 11 12 12 12 9 10 9 8 8 8 7 6 6 5 5 5 5 5 6
6 7 11 13 15 14 8 4 4 6 7 8 4 4 4 4 3 2 4 3 3 4 5 6 9 12 12 13 12 11 10 10 10 9 9 8 7 6 5 5 5 5 5 6
6 7 10 13 15 15 4 3 2 3 3 10 10 10 10 6 5 3 3 2 2 2 4 6 8 8 11 11 12 12 11 10 10 10 8 7 6 5 5 6 5 6 6 7
8 10 13 15 14 6 4 2 3 3 1 7 7 6 6 6 6 5 3 1 2 2 2 5 6 7 9 10 10 10 10 10 9 8 7 6 6 6 7 7 6 6 7 8
11 10 10 9 9 3 9 4 3 3 4 6 6 6 7 5 6 6 6 3 1 0 1 3 4 5 7 9 9 9 8 7 6 6 6 6 6 7 7 6 6 6 8 9
6 5 4 3 2 3 4 4 2 3 4 6 7 8 7 7 8 7 7 6 4 2 1 2 3 4 5 7 7 8 7 6 6 6 6 6 6 7 6 7 8 8 8 10
5 6 5 3 5 6 6 6 4 3 5 7 9 10 11 11 11 12 11 10 9 7 5 4 1 1 3 5 7 7 6 7 7 7 7 7 7 8 9 9 9 9 9 8
5 3 3 0 6 8 7 5 5 6 9 11 12 13 14 13 13 13 12 13 11 11 10 8 6 3 1 2 3 5 6 6 7 8 7 8 9 10 9 9 10 10 9 8
4 2 2 1 4 4 6 5 6 8 10 11 12 13 14 14 14 14 13 12 12 12 10 10 9 8 6 3 1 3 4 5 6 7 8 9 9 9 9 9 10 16 17 16
Wind_Direction
254 252 276 283 279 300 343 3 267 262 273 288 153 145 188 218 214 168 145 139 140 142 144 144 147 145 141 140 142 147 141 135 160 129 1 12 27 359 356 95 103 67 25 13
260 263 278 299 306 312 359 339 305 278 267 282 138 128 187 202 183 176 154 152 153 152 149 150 157 154 151 153 155 156 160 164 185 148 141 209 293 290 277 49 118 101 46 358
283 288 285 293 299 313 331 294 266 258 252 346 29 10 285 256 248 198 161 163 167 164 158 162 170 167 165 167 172 179 173 166 182 184 240 286 261 270 298 20 67 73 28 341
294 297 300 296 299 296 292 266 276 292 295 319 210 251 245 203 227 200 185 175 171 168 162 168 178 180 180 176 177 173 163 164 168 195 263 298 299 309 328 345 44 49 310 273
280 282 284 286 290 296 305 332 9 15 4 331 271 242 184 177 197 191 191 185 177 173 171 175 181 183 185 179 171 166 157 156 168 202 239 270 311 337 356 2 343 324 275 237
285 291 287 298 294 304 318 1 28 24 4 305 250 233 167 171 178 180 185 179 177 177 177 179 184 178 180 178 170 162 151 157 169 196 234 252 304 327 326 318 304 295 291 257
273 283 294 285 278 286 292 296 346 345 251 250 242 213 123 132 153 166 169 171 176 179 180 181 186 178 177 182 171 155 149 158 171 194 208 244 328 316 274 261 277 305 309 325
298 310 271 255 267 269 267 272 276 289 257 224 227 130 130 127 127 142 156 164 174 180 183 184 184 180 176 175 168 157 149 153 166 188 178 166 273 277 288 355 352 321 303 311
296 271 253 257 273 277 284 290 293 287 315 353 336 109 123 136 140 149 156 163 176 182 183 182 175 172 165 165 157 148 138 147 168 190 165 193 216 246 293 314 282 278 305 302
281 290 279 247 264 247 260 295 308 311 314 301 356 352 158 157 154 157 164 169 175 181 183 178 171 168 161 154 140 135 138 152 170 195 209 223 193 220 234 256 286 300 297 294
280 289 291 291 294 295 258 257 283 305 316 331 46 290 188 178 166 169 175 178 179 184 183 175 168 159 155 153 148 148 149 158 178 203 203 244 258 269 269 258 259 267 277 286
298 292 298 311 343 332 306 280 260 277 308 307 325 113 124 139 161 171 178 179 179 180 178 168 160 153 158 164 161 161 165 177 185 191 188 205 225 240 252 264 274 283 283 283
329 306 294 302 3 345 314 296 286 269 277 289 311 154 323 303 197 166 168 168 167 164 169 163 153 154 165 170 168 169 177 187 185 183 187 202 216 233 239 257 270 277 282 283
295 279 285 290 231 210 263 276 276 270 271 288 299 292 223 231 210 168 163 161 162 160 162 163 149 153 162 163 160 170 186 183 185 185 194 204 215 234 245 255 262 269 277 280
288 281 287 289 256 214 234 255 265 266 272 280 282 281 256 182 168 159 166 166 170 165 167 167 157 155 161 164 165 176 187 183 189 190 208 214 216 224 236 248 255 263 270 278
281 287 294 290 277 264 258 261 262 266 270 272 279 291 64 86 97 123 152 172 176 175 179 177 172 168 173 177 181 184 188 186 178 195 220 224 221 235 242 247 248 252 260 272
273 276 282 286 291 290 279 284 283 286 283 278 276 281 85 129 125 158 204 205 186 189 189 182 179 177 176 181 184 188 187 185 185 194 213 221 220 232 239 255 265 272 275 276
260 270 275 278 283 279 280 307 293 272 268 277 275 239 152 90 161 204 223 226 191 192 194 183 181 176 177 181 184 187 187 187 194 200 210 217 221 233 238 246 258 265 269 273
281 261 264 272 276 275 278 303 316 337 336 348 11 15 24 33 327 251 179 178 175 200 185 175 184 186 179 182 181 182 193 190 199 207 208 214 219 228 237 249 257 264 267 270
275 258 258 261 270 282 313 71 52 340 313 10 35 29 9 4 334 7 97 157 197 201 178 177 188 185 172 176 175 180 194 197 204 210 206 207 209 220 234 245 253 260 263 268
243 243 248 259 267 280 24 112 171 207 35 358 22 18 350 10 339 319 306 174 166 174 187 180 185 183 172 168 172 184 197 204 204 204 201 203 207 214 226 235 238 246 258 265
237 239 245 261 272 292 7 10 46 23 353 337 352 357 352 346 312 319 336 358 44 288 219 199 184 181 163 164 175 192 205 206 201 201 204 209 214 232 241 230 236 245 255 263
267 278 270 234 217 123 73 64 31 3 346 354 354 355 349 338 338 355 5 11 20 21 322 241 193 181 165 165 176 200 206 202 206 207 214 220 224 226 235 242 246 249 248 254
324 346 335 17 92 122 132 129 109 53 17 12 18 17 18 13 11 19 25 22 19 13 6 359 349 189 171 175 191 203 199 196 206 214 220 224 230 235 232 234 241 248 252 255
283 262 274 254 126 118 78 65 62 57 45 40 38 38 36 32 32 32 33 26 21 20 15 12 6 356 352 188 203 210 203 200 214 224 230 235 241 247 243 235 236 242 246 248
326 332 299 105 125 116 113 87 65 70 66 57 48 46 41 37 36 36 33 28 24 20 18 14 6 360 354 343 275 246 224 219 229 239 242 247 250 251 249 244 244 234 232 235
Height
1495 1496 1493 1487 1482 1481 1485 1493 1499 1495 1485 1488 1493 1501 1504 1505 1504 1506 1508 1511 1514 1518 1521 1524 1527 1530 1532 1534 1537 1539 1542 1543 1545 1546 1547 1547 1548 1547 1547 1546 1544 1543 1542 1541
1491 1491 1484 1479 1478 1479 1486 1496 1498 1491 1483 1487 1494 1502 1503 1502 1503 1506 1507 1511 1514 1517 1521 1524 1527 1530 1532 1534 1536 1538 1540 1542 1543 1544 1545 1545 1545 1546 1546 1545 1543 1542 1540 1539
1487 1482 1477 1477 1479 1483 1488 1495 1494 1491 1485 1488 1496 1506 1504 1501 1503 1505 1507 1510 1513 1516 1519 1523 1526 1529 1531 1533 1535 1538 1539 1541 1542 1543 1543 1544 1544 1544 1544 1543 1542 1540 1539 1538
1482 1477 1476 1478 1480 1481 1489 1482 1482 1485 1493 1504 1505 1519 1508 1502 1504 1504 1506 1509 1512 1515 1518 1522 1525 1528 1530 1532 1534 1536 1537 1539 1540 1541 1541 1542 1542 1542 1542 1541 1540 1538 1537 1537
1480 1475 1477 1479 1478 1476 1479 1477 1485 1494 1504 1507 1504 1509 1506 1499 1502 1502 1504 1507 1510 1513 1516 1520 1523 1526 1529 1531 1533 1534 1536 1537 1538 1538 1539 1539 1539 1539 1539 1538 1537 1536 1536 1535
1476 1473 1473 1474 1473 1474 1475 1481 1493 1506 1517 1526 1504 1502 1504 1495 1494 1495 1499 1503 1507 1511 1515 1518 1521 1524 1527 1530 1531 1532 1534 1535 1536 1536 1537 1537 1536 1536 1535 1535 1535 1535 1535 1534
1483 1480 1476 1475 1476 1476 1478 1492 1515 1530 1537 1526 1490 1490 1493 1481 1482 1487 1494 1499 1505 1508 1512 1516 1519 1522 1525 1527 1530 1531 1532 1533 1534 1534 1535 1534 1534 1534 1533 1533 1533 1533 1533 1533
1491 1500 1484 1475 1475 1479 1477 1483 1506 1519 1517 1505 1483 1487 1483 1476 1480 1485 1490 1496 1502 1506 1509 1513 1516 1519 1522 1525 1527 1529 1530 1531 1532 1532 1532 1532 1532 1532 1532 1532 1531 1531 1531 1530
1487 1493 1477 1470 1469 1471 1475 1474 1472 1484 1489 1504 1494 1482 1480 1477 1480 1483 1488 1494 1499 1503 1506 1510 1514 1517 1520 1523 1525 1527 1528 1529 1530 1530 1530 1530 1530 1529 1529 1529 1529 1529 1528 1527
1473 1483 1471 1468 1468 1466 1468 1469 1473 1483 1500 1512 1513 1503 1494 1482 1481 1482 1486 1491 1495 1500 1504 1507 1511 1514 1518 1521 1523 1525 1526 1527 1528 1528 1528 1529 1528 1528 1527 1526 1526 1525 1524 1524
1468 1479 1476 1472 1478 1475 1472 1472 1474 1476 1480 1497 1521 1514 1481 1475 1476 1478 1482 1487 1492 1496 1500 1504 1508 1512 1515 1518 1520 1522 1524 1525 1525 1526 1526 1526 1526 1525 1525 1524 1523 1522 1521 1520
1469 1474 1481 1480 1478 1475 1472 1470 1472 1486 1489 1483 1493 1500 1468 1469 1471 1474 1478 1483 1488 1492 1496 1500 1505 1509 1513 1516 1518 1520 1521 1522 1523 1523 1523 1523 1523 1522 1522 1521 1521 1520 1518 1517
1472 1481 1492 1491 1495 1491 1485 1474 1469 1470 1477 1483 1492 1495 1472 1470 1471 1473 1476 1481 1485 1490 1494 1498 1502 1506 1510 1514 1516 1518 1519 1520 1521 1521 1521 1520 1520 1520 1519 1518 1517 1516 1515 1514
1474 1480 1489 1499 1502 1500 1497 1481 1472 1472 1478 1482 1484 1483 1475 1471 1471 1472 1476 1480 1484 1488 1493 1497 1500 1504 1508 1511 1513 1515 1516 1517 1518 1518 1518 1518 1517 1517 1516 1515 1514 1513 1512 1510
1474 1479 1477 1475 1476 1482 1484 1476 1468 1468 1468 1474 1473 1472 1469 1467 1468 1471 1474 1478 1483 1487 1491 1495 1499 1502 1505 1508 1510 1512 1513 1514 1515 1515 1515 1515 1515 1514 1513 1512 1511 1510 1508 1507
1476 1480 1478 1476 1469 1467 1469 1464 1463 1461 1460 1462 1463 1465 1461 1464 1467 1471 1474 1477 1481 1485 1488 1492 1496 1499 1502 1504 1506 1508 1509 1510 1510 1511 1511 1511 1511 1510 1510 1509 1507 1506 1504 1503
1474 1477 1481 1480 1467 1466 1473 1461 1459 1458 1456 1459 1464 1463 1461 1464 1468 1471 1473 1476 1478 1482 1485 1488 1492 1495 1497 1500 1502 1504 1505 1506 1506 1507 1507 1507 1507 1507 1506 1505 1504 1502 1500 1499
1472 1476 1478 1478 1476 1487 1468 1456 1456 1458 1456 1454 1456 1458 1460 1463 1467 1470 1472 1474 1476 1479 1482 1485 1487 1490 1493 1495 1497 1499 1500 1501 1502 1502 1503 1503 1503 1503 1502 1501 1500 1498 1496 1494
1467 1473 1476 1477 1478 1472 1460 1459 1461 1465 1465 1458 1458 1460 1460 1463 1465 1467 1469 1472 1475 1478 1479 1481 1484 1486 1488 1490 1492 1494 1496 1497 1497 1498 1498 1499 1499 1498 1497 1496 1495 1493 1492 1490
1468 1471 1477 1475 1479 1479 1466 1461 1460 1466 1474 1466 1464 1465 1465 1466 1470 1470 1470 1471 1473 1475 1477 1478 1480 1482 1483 1485 1487 1489 1490 1492 1492 1493 1494 1494 1494 1493 1492 1491 1490 1489 1487 1485
1477 1476 1476 1473 1472 1465 1463 1462 1464 1479 1482 1470 1468 1469 1469 1469 1472 1472 1470 1470 1471 1473 1474 1475 1477 1478 1479 1480 1482 1484 1485 1486 1488 1489 1489 1489 1489 1488 1487 1486 1485 1483 1482 1480
1467 1470 1471 1471 1478 1480 1468 1466 1474 1479 1474 1472 1470 1470 1469 1469 1469 1469 1469 1469 1469 1470 1471 1472 1473 1475 1476 1477 1478 1479 1481 1483 1484 1485 1485 1484 1484 1483 1483 1482 1480 1478 1477 1475
1456 1457 1458 1463 1470 1471 1471 1474 1476 1476 1474 1472 1471 1470 1469 1469 1469 1468 1468 1468 1468 1469 1470 1470 1471 1472 1473 1474 1475 1477 1478 1479 1480 1480 1480 1479 1479 1478 1477 1476 1475 1473 1472 1470
1453 1453 1456 1461 1465 1470 1473 1473 1474 1474 1473 1473 1472 1470 1470 1470 1470 1469 1469 1469 1469 1468 1468 1468 1468 1469 1470 1471 1472 1473 1474 1474 1474 1474 1473 1473 1472 1471 1470 1469 1468 1467 1466 1465
1452 1454 1458 1463 1468 1471 1475 1474 1474 1473 1473 1473 1473 1473 1473 1473 1472 1472 1471 1471 1470 1469 1468 1468 1468 1468 1468 1468 1468 1469 1470 1469 1469 1468 1468 1467 1466 1465 1464 1463 1462 1460 1459 1458
1451 1455 1458 1463 1466 1469 1473 1474 1474 1474 1474 1475 1476 1476 1476 1476 1475 1475 1474 1473 1471 1470 1469 1468 1468 1467 1467 1467 1466 1466 1466 1465 1464 1463 1462 1461 1461 1459 1458 1456 1455 1453 1452 1451